EW4496 Weather Reports


time (UTC)temp
C
wind
direction
speed
KPH
gust
KPH
rain 1hr
cm
rain 24hr
cm
rain mn
cm
humidity
%
barometer
mb
20260510211600 28 212 0.0 0.0 0.00 0.00 0.00 48 1012.1
20260510210113 27 316 0.0 9.7 0.00 0.00 0.00 49 1012.2
20260510204618 27 191 0.0 0.0 0.00 0.00 0.00 47 1012.4
20260510203112 27 246 0.0 0.0 0.00 0.00 0.00 47 1012.5
20260510201611 26 328 0.0 6.4 0.00 0.00 0.00 51 1012.6
20260510200112 26 288 0.0 3.2 0.00 0.00 0.00 52 1012.7
20260510194612 25 321 0.0 0.0 0.00 0.00 0.00 52 1012.8
20260510193111 25 357 0.0 6.4 0.00 0.00 0.00 54 1013.0
20260510191611 24 300 0.0 6.4 0.00 0.00 0.00 53 1013.1
20260510190111 23 278 0.0 3.2 0.00 0.00 0.00 57 1013.2
20260510184612 23 323 0.0 6.4 0.00 0.00 0.00 58 1013.3
20260510183112 23 306 0.0 8.0 0.00 0.00 0.00 58 1013.3
20260510181630 22 335 0.0 4.8 0.00 0.00 0.00 59 1013.3
20260510180111 22 312 0.0 4.8 0.00 0.00 0.00 60 1013.4
20260510174624 21 314 0.0 3.2 0.00 0.00 0.00 61 1013.3
20260510173112 21 6 0.0 3.2 0.00 0.00 0.00 63 1013.3
20260510171627 20 312 0.0 1.6 0.00 0.00 0.00 65 1013.4
20260510170018 20 314 0.0 1.6 0.00 0.00 0.00 67 1013.3
20260510164541 19 181 0.0 1.6 0.00 0.00 0.00 68 1013.2
20260510163050 18 276 0.0 1.6 0.00 0.00 0.00 69 1013.4
20260510161541 18 316 0.0 0.0 0.00 0.00 0.00 72 1013.3
20260510160042 17 333 0.0 1.6 0.00 0.00 0.00 73 1013.2
20260510154542 17 328 0.0 0.0 0.00 0.00 0.00 75 1013.2
20260510153044 16 312 0.0 0.0 0.00 0.00 0.00 76 1013.3
20260510151541 16 231 0.0 0.0 0.00 0.00 0.00 77 1013.2
20260510150049 15 286 0.0 1.6 0.00 0.00 0.00 79 1013.1
20260510144559 15 239 0.0 1.6 0.00 0.00 0.00 82 1013.1
20260510143049 14 224 0.0 0.0 0.00 0.00 0.00 84 1013.0
20260510141549 13 263 0.0 3.2 0.00 0.00 0.00 84 1012.8
20260510140049 13 229 0.0 0.0 0.00 0.00 0.00 86 1012.7
20260510134610 12 277 0.0 0.0 0.00 0.00 0.00 88 1012.6
20260510133109 12 222 0.0 0.0 0.00 0.00 0.00 89 1012.4
20260510131610 11 218 0.0 0.0 0.00 0.00 0.00 90 1012.2
20260510130109 11 240 0.0 0.0 0.00 0.00 0.00 90 1012.2
20260510124508 12 263 0.0 0.0 0.00 0.00 0.00 90 1012.1
20260510123009 12 264 0.0 0.0 0.00 0.00 0.00 90 1012.1
20260510121508 12 281 0.0 0.0 0.00 0.00 0.00 89 1012.0
20260510120008 12 285 0.0 0.0 0.00 0.00 0.00 89 1012.0
20260510114525 12 233 0.0 0.0 0.00 0.00 0.00 89 1011.9
20260510113035 12 231 0.0 0.0 0.00 0.00 0.00 89 1011.9
20260510111523 12 227 0.0 0.0 0.00 0.00 0.00 88 1011.9
20260510110037 12 226 0.0 0.0 0.00 0.00 0.00 88 1011.7
20260510104523 13 240 0.0 0.0 0.00 0.00 0.00 88 1011.7
20260510103023 12 246 0.0 0.0 0.00 0.00 0.00 89 1011.8
20260510101523 13 301 0.0 0.0 0.00 0.00 0.00 88 1011.7
20260510100023 13 293 0.0 0.0 0.00 0.00 0.00 87 1011.6
20260510094534 13 306 0.0 0.0 0.00 0.00 0.00 87 1011.5
20260510093025 13 325 0.0 0.0 0.00 0.00 0.00 87 1011.5
20260510091526 13 309 0.0 0.0 0.00 0.00 0.00 86 1011.5
20260510090025 13 263 0.0 0.0 0.00 0.00 0.00 86 1011.4
20260510084522 14 292 0.0 0.0 0.00 0.00 0.00 84 1011.3
20260510083038 15 205 0.0 0.0 0.00 0.00 0.00 83 1011.4
20260510081556 15 210 0.0 0.0 0.00 0.00 0.00 83 1011.3
20260510074554 15 236 0.0 0.0 0.00 0.00 0.00 81 1011.3
20260510073107 15 180 0.0 0.0 0.00 0.00 0.00 81 1011.4
20260510071607 15 181 0.0 0.0 0.00 0.00 0.00 81 1011.5
20260510070115 15 231 0.0 1.6 0.00 0.00 0.00 80 1011.4
20260510064608 16 321 0.0 0.0 0.00 0.00 0.00 78 1011.2
20260510063007 16 270 0.0 1.6 0.00 0.00 0.00 76 1011.3
20260510061509 16 228 0.0 0.0 0.00 0.00 0.00 76 1011.4
20260510060021 17 240 0.0 0.0 0.00 0.00 0.00 76 1011.4
20260510054554 17 219 0.0 0.0 0.00 0.00 0.00 76 1011.3
20260510053109 17 227 0.0 0.0 0.00 0.00 0.00 75 1011.3
20260510051610 18 239 0.0 0.0 0.00 0.00 0.00 74 1011.3
20260510050115 18 226 0.0 0.0 0.00 0.00 0.00 73 1011.1
20260510044606 19 254 0.0 0.0 0.00 0.00 0.00 72 1011.1
20260510043108 19 274 0.0 0.0 0.00 0.00 0.00 70 1010.9
20260510041611 20 255 0.0 0.0 0.00 0.00 0.00 70 1010.7
20260510040115 20 229 0.0 0.0 0.00 0.00 0.00 69 1010.6
20260510034606 21 294 0.0 0.0 0.00 0.00 0.00 66 1010.4
20260510033107 22 321 0.0 0.0 0.00 0.00 0.00 63 1010.2
20260510031606 23 304 0.0 1.6 0.00 0.00 0.00 61 1010.0
20260510030106 24 276 0.0 0.0 0.00 0.00 0.00 59 1009.9
20260510024605 25 298 0.0 1.6 0.00 0.00 0.00 56 1009.8
20260510023014 26 301 0.0 1.6 0.00 0.00 0.00 54 1009.7
20260510021652 27 302 0.0 0.0 0.00 0.00 0.00 54 1009.7
20260510020106 27 321 0.0 8.0 0.00 0.00 0.00 51 1009.7
20260510014606 28 320 0.0 8.0 0.00 0.00 0.00 50 1009.7
20260510013100 29 309 0.0 6.4 0.00 0.00 0.00 47 1009.7
20260510011551 30 349 0.0 9.7 0.00 0.00 0.00 45 1009.7
20260510010057 31 293 0.0 4.8 0.00 0.00 0.00 43 1009.7
20260510004550 31 288 0.0 9.7 0.00 0.00 0.00 42 1009.7
20260510003052 31 233 0.0 3.2 0.00 0.00 0.00 39 1009.7
20260510001536 31 281 0.0 6.4 0.00 0.00 0.00 40 1009.8
20260510000036 31 338 0.0 11.3 0.00 0.00 0.00 40 1009.8
20260509234536 32 328 0.0 1.6 0.00 0.00 0.00 39 1009.9
20260509233036 32 7 0.0 1.6 0.00 0.00 0.00 34 1010.0
20260509231541 32 6 0.0 4.8 0.00 0.00 0.00 34 1010.1
20260509230053 31 331 0.0 0.0 0.00 0.00 0.00 36 1010.2
20260509224550 31 20 0.0 1.6 0.00 0.00 0.00 33 1010.4
20260509223053 31 18 0.0 4.8 0.00 0.00 0.00 36 1010.6
20260509221550 31 314 1.6 9.7 0.00 0.00 0.00 36 1010.8
20260509220051 30 359 0.0 4.8 0.00 0.00 0.00 39 1010.9
20260509214550 30 357 0.0 6.4 0.00 0.00 0.00 38 1011.0
20260509213105 30 308 0.0 6.4 0.00 0.00 0.00 40 1011.3